SCP
0 0 1 1 0 0 0 0 0 0 0 0 0 0 0 0 0 0 0 0 0 0 0 0 0 0 0 0 0 0 0 0 0 0 0 0 0 0 0 0 0 0 0
0 0 1 1 0 0 0 0 0 0 0 0 0 0 0 0 0 0 0 0 0 0 0 0 0 0 0 0 0 0 0 0 0 0 0 0 0 0 0 0 0 0 0
0 0 0 0 0 0 0 0 0 0 0 0 0 0 0 0 0 0 0 0 0 0 0 0 0 0 0 0 0 0 0 0 0 0 0 0 0 0 0 0 0 0 0
0 0 0 0 0 0 0 0 0 0 0 0 0 0 0 0 0 0 0 0 0 0 0 0 0 0 0 0 0 0 0 0 0 0 0 0 0 0 0 0 0 0 0
0 0 0 0 0 0 0 0 0 0 0 0 0 0 0 0 0 0 0 0 0 0 0 0 0 0 0 0 0 0 0 0 0 0 0 0 0 0 0 0 0 0 0
0 0 0 0 0 0 0 0 0 0 0 0 0 0 0 0 0 0 0 0 0 0 0 0 0 0 0 0 0 0 0 0 0 0 0 0 0 0 0 0 0 0 0
0 0 0 0 0 0 0 0 0 0 0 0 0 0 0 0 0 0 0 0 0 0 0 0 0 0 0 0 0 0 0 0 0 0 0 0 0 0 0 0 0 0 0
0 0 0 0 0 0 0 0 0 0 0 0 0 0 0 0 0 0 0 0 0 0 0 0 0 0 0 0 0 0 0 0 0 0 0 0 0 0 0 0 0 0 0
0 0 0 0 0 0 0 0 0 0 0 0 0 0 0 0 0 0 0 0 0 0 0 0 0 0 -0 -0 -0 0 0 0 0 0 0 0 -0 -0 0 0 0 0 0
0 0 0 0 0 0 0 0 0 0 0 0 0 0 0 0 0 0 0 0 0 0 0 0 0 -0 -0 -0 -0 -0 0 0 0 0 0 0 -0 -0 0 0 0 0 0
0 0 0 0 0 0 0 0 0 0 0 0 0 0 0 0 0 0 0 0 0 0 0 0 -0 -0 -0 -0 -0 -0 -0 0 0 0 0 0 0 0 0 0 0 0 0
0 0 0 0 0 0 0 0 0 0 0 0 0 0 0 0 0 0 0 0 0 0 0 0 0 -0 -0 0 0 0 0 0 0 0 0 0 0 0 0 0 0 0 0
0 0 0 0 0 0 0 0 0 0 0 0 0 0 0 0 0 0 0 0 0 0 0 0 0 0 0 0 0 0 0 0 0 0 0 0 0 0 0 0 0 0 0
0 0 0 0 0 0 0 0 0 0 0 0 0 0 0 0 0 0 0 0 0 0 0 0 0 0 0 0 0 0 0 0 0 0 0 0 0 0 0 0 0 0 0
0 0 0 0 0 0 0 0 0 0 0 0 0 0 0 0 0 0 0 0 0 0 0 0 0 0 0 0 0 0 0 0 0 0 0 0 0 0 0 0 0 0 0
0 0 0 0 0 0 0 0 0 0 0 0 0 0 0 0 0 0 0 0 0 0 0 0 0 0 0 0 0 0 0 0 0 0 0 0 0 0 0 0 0 0 0
0 0 0 0 0 0 0 0 0 0 0 0 0 0 0 0 0 0 0 0 0 0 0 0 0 0 0 0 0 0 0 0 0 0 0 0 0 0 0 0 0 0 0
0 0 0 0 0 0 0 0 0 0 0 0 0 0 0 0 0 0 0 0 0 0 0 0 0 0 0 0 0 0 0 0 0 0 0 0 0 0 0 0 0 0 0
0 0 0 0 0 0 0 0 0 0 0 0 0 0 0 0 0 0 0 0 0 0 0 0 0 0 0 0 0 0 0 0 0 0 0 0 0 0 0 0 0 0 0
0 0 0 0 0 0 0 0 0 0 0 0 0 0 0 0 0 0 0 0 0 0 0 0 0 0 0 0 0 0 0 0 0 0 0 0 0 0 0 0 0 0 0
0 0 0 0 0 0 0 0 0 0 0 0 0 0 0 0 0 0 0 0 0 0 0 0 0 0 0 0 0 0 0 0 0 0 0 0 0 0 0 0 0 0 0
0 0 0 0 0 0 0 0 0 0 0 0 0 0 0 0 0 0 0 0 0 0 0 0 0 0 0 0 0 0 0 0 0 0 0 0 0 0 0 0 0 0 0
0 0 0 0 0 0 0 0 0 0 0 0 0 0 0 0 0 0 0 0 0 0 0 0 0 0 0 0 0 0 0 0 0 0 0 0 0 0 0 0 0 0 0
0 0 0 0 0 0 0 0 0 0 0 0 0 0 0 0 0 0 0 0 0 0 0 0 0 0 0 0 0 0 0 0 0 0 0 0 0 0 0 0 0 0 0
0 0 0 0 0 0 0 0 0 0 0 0 0 0 0 0 0 0 0 0 0 0 0 0 0 0 0 0 0 0 0 0 0 0 0 0 0 0 0 0 0 0 0
0 0 0 0 0 0 0 0 0 0 0 0 0 0 0 0 0 0 0 0 0 0 0 0 0 0 0 0 0 0 0 0 0 0 0 0 0 0 0 0 0 0 0
Wind_Speed
7 12 15 15 14 14 13 11 10 8 7 6 6 7 8 9 9 7 6 5 6 7 8 9 8 6 6 7 7 7 6 5 5 5 6 7 6 4 3 3 4 5 1
12 14 14 13 13 13 12 11 10 8 7 6 6 6 7 6 6 6 5 5 6 7 7 9 10 8 8 7 6 5 5 4 3 5 6 8 9 7 4 2 5 4 4
12 14 12 12 12 12 12 11 10 8 6 5 5 4 4 4 4 4 4 5 6 6 7 7 8 9 8 8 6 4 3 4 5 6 9 7 8 11 7 3 4 6 6
12 13 11 12 12 11 12 11 10 8 6 4 3 3 2 1 2 3 3 4 5 6 6 6 5 6 6 7 6 5 3 4 5 6 6 7 5 5 6 4 5 6 6
9 11 13 14 11 11 12 11 10 8 6 4 2 1 1 2 2 3 4 5 5 5 5 4 4 4 4 5 5 6 6 7 6 6 6 6 3 4 5 4 6 7 7
8 12 13 13 12 11 12 11 9 7 6 4 3 1 2 3 2 4 6 6 4 3 3 3 3 3 4 4 5 6 7 7 5 5 5 5 3 7 6 5 7 9 9
8 13 13 13 12 12 11 11 10 7 6 4 3 1 1 4 4 3 8 6 4 1 2 3 3 4 4 5 6 6 7 5 5 5 6 5 5 10 10 9 9 11 11
8 11 12 13 11 10 10 11 10 9 7 4 2 1 1 4 4 4 8 7 4 2 3 5 6 6 7 8 8 9 8 7 7 6 6 6 9 12 12 12 12 13 13
8 9 11 9 8 8 8 10 10 9 7 5 3 1 1 1 2 4 7 7 6 4 5 6 7 8 9 10 10 10 9 8 5 5 9 6 9 13 13 13 14 15 16
6 6 10 11 9 8 7 9 10 8 7 6 4 3 4 4 6 7 8 8 6 5 6 8 9 10 10 11 12 12 11 8 6 7 6 8 14 15 15 15 16 17 18
4 5 6 9 10 10 9 11 9 8 8 7 6 9 6 5 7 7 6 6 6 6 8 9 11 11 11 10 13 15 11 4 6 6 6 9 13 14 15 16 17 18 19
8 6 5 5 7 7 6 8 6 7 7 7 6 8 6 6 1 4 8 7 6 7 9 11 13 12 9 6 9 10 4 7 7 6 6 11 15 17 17 17 18 19 20
11 9 7 6 6 6 4 4 4 4 5 7 6 5 4 2 2 2 3 3 5 7 5 7 6 5 6 5 4 3 5 6 4 4 6 12 15 18 19 19 20 21 22
7 9 8 7 5 5 5 4 3 3 3 3 3 2 2 2 1 0 0 1 1 2 2 2 3 5 5 5 5 5 5 4 4 4 6 12 14 17 20 20 21 22 23
4 7 7 7 7 5 3 3 3 3 3 4 3 2 2 2 0 2 1 1 1 1 2 2 3 4 5 5 4 5 6 6 6 6 5 10 12 14 18 20 21 22 23
2 4 5 5 6 7 5 3 2 2 3 2 4 3 3 2 2 2 2 3 3 3 3 3 4 4 4 4 5 6 6 6 6 6 6 7 11 13 16 19 21 21 22
4 3 2 2 3 7 7 5 3 2 4 3 4 4 3 3 3 2 2 3 3 3 4 3 4 4 4 4 5 6 5 6 7 7 7 6 6 10 13 17 19 20 21
1 2 3 2 2 5 6 5 4 5 6 5 5 5 6 6 5 4 4 4 4 4 4 4 4 4 5 5 5 5 5 6 8 7 6 7 5 5 7 11 14 17 20
3 4 3 4 5 7 8 8 8 8 8 7 6 6 7 8 8 6 5 5 6 4 4 5 4 4 5 5 6 6 6 7 7 8 7 7 7 6 5 9 13 14 16
4 5 6 7 9 10 9 9 8 9 7 6 6 7 8 7 9 6 5 6 6 4 5 5 6 6 4 5 8 7 8 8 6 5 7 8 9 9 9 9 9 11 16
5 6 7 8 9 8 7 7 6 6 5 5 6 8 8 8 8 7 5 5 6 5 5 6 5 6 5 5 4 6 7 6 4 8 10 9 8 9 9 10 8 8 9
6 7 8 8 9 8 7 6 6 6 5 5 5 7 8 8 7 7 7 5 5 5 6 6 5 4 4 5 4 5 5 6 5 10 7 6 8 6 8 11 10 10 9
7 7 8 9 10 11 10 8 7 5 5 4 5 4 6 7 7 7 7 6 6 5 4 5 5 5 4 5 4 3 4 5 8 5 6 8 6 7 8 8 10 9 10
6 7 8 8 9 8 7 7 7 6 5 4 3 4 6 7 7 6 6 6 5 4 5 5 6 4 5 4 4 3 4 7 6 7 5 5 9 9 8 10 9 10 11
6 7 7 8 8 8 8 8 8 6 5 4 4 5 5 5 6 6 6 5 5 4 4 5 5 5 3 4 4 4 6 6 6 10 12 7 6 6 6 7 8 9 10
7 7 7 8 9 9 9 8 8 8 7 6 6 4 4 4 4 5 5 5 4 3 4 4 4 6 5 5 4 4 5 5 7 8 14 15 11 6 6 6 7 8 9
Wind_Direction
124 132 148 150 150 147 144 138 131 122 108 92 89 91 96 98 91 78 61 54 41 32 28 24 24 39 56 67 73 69 62 53 32 6 346 327 304 310 5 19 327 323 112
122 133 146 150 152 151 148 142 135 129 117 99 97 102 100 95 85 74 60 51 42 33 23 18 28 39 48 50 56 56 46 29 351 335 321 304 272 245 237 285 310 320 331
119 132 147 152 155 155 153 146 140 140 132 115 105 107 108 106 101 90 78 60 47 36 25 18 25 34 35 31 30 33 26 359 335 327 309 283 259 228 217 235 281 293 302
123 137 150 150 157 158 157 149 148 151 145 133 120 109 110 101 136 125 110 80 55 40 28 19 15 20 19 14 8 357 337 324 330 318 299 289 312 190 203 239 272 276 281
121 135 140 149 157 161 158 155 157 157 153 147 144 79 20 338 221 169 129 101 79 53 33 21 13 8 3 349 335 321 311 315 336 302 275 279 302 267 244 258 276 282 274
127 124 137 149 156 160 161 162 162 163 163 161 163 216 307 317 297 190 145 125 113 77 37 17 357 345 338 329 319 310 307 313 324 290 297 300 299 292 282 269 269 276 275
131 128 142 150 158 165 169 168 165 165 165 164 169 195 316 344 336 176 154 148 146 143 346 339 320 307 300 296 293 291 291 296 275 264 266 267 259 267 270 266 265 267 273
121 128 142 154 162 173 177 170 169 168 166 165 165 180 2 18 36 134 160 168 184 230 296 313 310 301 292 286 284 286 286 280 287 293 282 265 254 254 260 264 263 263 264
131 137 146 159 168 180 179 173 175 174 173 174 178 168 90 98 100 139 170 189 212 247 284 297 299 298 297 295 291 289 284 273 267 266 272 268 260 257 259 260 260 260 259
143 158 156 166 174 175 178 181 178 177 178 183 193 190 179 209 226 209 196 202 216 250 283 292 293 293 294 295 290 281 269 265 254 255 254 253 255 256 258 259 260 261 261
180 182 177 170 172 175 179 178 176 178 189 194 205 211 208 226 224 212 212 181 206 254 277 283 284 285 286 283 275 264 259 245 249 253 250 253 258 261 263 263 263 264 264
190 201 195 188 165 169 168 156 178 182 185 200 217 195 205 222 177 115 154 194 227 258 270 273 270 275 275 260 260 257 236 238 243 248 246 248 258 263 265 265 265 265 266
182 184 187 189 171 163 148 158 176 177 174 196 218 182 179 168 123 157 171 198 225 237 244 260 256 248 242 245 255 245 233 242 244 252 258 261 261 265 265 266 266 267 266
163 167 175 176 171 169 154 169 179 171 166 173 161 136 134 110 83 288 151 225 239 241 244 269 268 270 266 266 265 264 262 260 255 252 250 258 254 259 266 267 268 269 269
162 159 168 174 168 165 161 160 175 183 152 157 128 102 83 84 69 38 350 331 297 305 299 288 291 300 310 313 316 321 317 305 296 292 285 281 273 262 270 275 274 274 274
131 150 158 172 170 157 154 164 174 167 112 81 109 108 86 66 58 38 351 356 352 346 342 339 333 334 327 325 318 303 291 293 292 296 293 293 290 277 272 278 280 280 279
36 42 93 134 163 153 158 170 159 137 114 93 81 73 75 78 70 51 34 21 8 5 2 359 347 336 327 324 316 315 313 305 295 289 284 278 277 276 271 276 282 284 283
87 88 104 149 170 148 139 133 101 82 75 69 62 57 52 51 56 57 47 25 15 20 13 2 355 352 341 331 322 313 307 297 290 287 290 285 279 277 279 280 284 287 288
102 110 118 137 128 104 93 84 79 71 65 63 57 54 51 45 47 56 46 25 16 27 17 4 5 359 339 336 327 319 315 304 298 305 309 319 329 333 334 327 320 309 299
90 103 99 91 94 94 89 84 78 73 67 62 59 56 54 48 41 38 45 33 17 24 17 11 2 353 344 343 327 320 303 296 303 336 344 346 339 339 343 339 335 328 325
85 95 99 101 100 99 102 100 96 89 78 67 61 57 53 49 46 42 33 34 22 23 24 12 4 349 345 337 330 317 296 305 348 1 342 331 329 334 340 336 326 323 318
86 85 90 95 96 95 96 95 100 101 92 85 71 61 57 50 43 45 36 31 21 21 22 8 8 355 343 347 343 327 328 319 358 337 304 322 316 321 328 321 315 309 304
75 78 88 89 94 99 103 105 107 98 94 83 81 75 65 59 46 41 38 33 23 26 17 2 12 3 341 334 350 340 333 308 314 272 330 306 313 327 312 306 303 306 312
81 78 86 93 101 111 118 113 111 105 102 99 98 98 88 72 57 38 36 34 29 27 18 1 5 345 345 329 327 336 300 298 304 302 296 299 311 307 307 311 316 313 309
88 83 83 83 79 77 79 85 95 96 98 91 79 71 82 75 63 40 32 29 31 26 9 355 348 335 327 317 316 313 307 303 296 303 301 296 293 289 300 313 312 307 305
95 89 88 86 78 73 75 76 83 89 86 79 69 57 57 64 55 38 27 19 23 16 353 341 337 325 313 307 305 301 298 299 305 302 301 305 302 293 296 297 297 301 308